West Plains, MO (65775)

3:02 AM CST on February 10, 2016 (GMT -0600)
Quail Run | | Change Station
CLOSE
Current Station
Personal Weather Station
Location: West Plains, MO
Elevation: 1138 ft
Nearby Weather Stations

Elev 1138 ft 36.73 °N, 91.91 °W | Updated 2 minutes ago

Clear
Clear
20.7 °F
Feels Like 21 °F
N
0.0
Wind Variable Wind from NW
Gusts 0.0 mph

Today
High -- | Low -- °F
--% Chance of Precip.
Yesterday
High -- | Low -- °F
Precip. -- in
Pressure 30.21 in
Visibility 10.0 miles
Clouds Clear
Windchill 21 °F
Dew Point 9 °F
Humidity 60%
Rainfall 0.00 in
Snow Depth Not available.
7:01 AM 5:42 PM
Waxing Crescent, 4% visible
METAR KUNO 100853Z AUTO 32006KT 10SM CLR M07/M16 A3017 RMK AO2 SLP228 T10721156 51003
Pressure 30.21 in
Visibility 10.0 miles
Clouds Clear
Windchill 21 °F
Dew Point 9 °F
Humidity 60%
Rainfall 0.00 in
Snow Depth Not available.
7:01 AM 5:42 PM
Waxing Crescent, 4% visible
METAR KUNO 100853Z AUTO 32006KT 10SM CLR M07/M16 A3017 RMK AO2 SLP228 T10721156 51003

10-Day Weather Forecast

Almanac

Astronomy

Feb. 10, 2016 Rise Set
Actual Time
Civil Twilight
Nautical Twilight
Astronomical Twilight
Moon
Length of Visible Light
Length of Day
Tomorrow will be .
, % of the Moon is Illuminated

Today's Extremes

State Highs State Lows

Community

WunderPhotos

Upload Photos

1,891,826 photos uploaded!

WunderBlog® & News

Nearby

Air Quality

  Air Quality AQ Index Pollutant
Not available.

Snow Depth

Station Depth Elevation

Earthquake Activity

City Distance Mag. Time & Date
Minimum magnitude displayed is 2.5.

Coastal Water Temperatures

Place Temperature

Stations

Nearby Weather Stations

Station Location Temp. Windchill Dew Point Humidity Wind Precip. Elev Updated Type
                   

Watches & Warnings

There are currently no watches in effect.